[[{"header":{"parameterUnit":"m.s-1","parameterCategory":1,"la1":30.2991,"la2":30.254,"lo1":-89.0895,"lo2":-89.0444,"dy":0.0017,"dx":0.0017,"nx":28,"ny":28,"refTime":"2023-10-06T09:00:00:Z","depth":0,"parameterNumber":2,"parameterNumberName":"U-component_of_WINDS"},"data":[0,0,0,0,0,0,0,0,0,0,0,0,0,0,0,0,0,0,0,0,0,0,0,0,0,0,0,0,0,0,0,0,0,0,0,0,0,0,0,0,0,0,0,0,0,0,0,0,0,0,0,0,0,0,0,0,0,0,-1.3905,-1.3905,0,-1.3938,-1.3939,-1.3939,-1.3884,-1.3882,-1.388,-1.3879,-1.3914,-1.3917,-1.3919,0,0,0,0,0,0,0,0,0,0,0,0,0,-1.3792,-1.3794,-1.3905,-1.3905,-1.3905,-1.3938,-1.3939,-1.3939,-1.3884,-1.3882,-1.388,-1.3878,-1.3913,-1.3916,-1.3919,0,0,0,0,0,0,0,0,0,0,0,0,0,-1.3835,-1.3795,-1.3904,-1.3882,-1.388,-1.3938,-1.3939,-1.3939,-1.3885,-1.3882,-1.3879,-1.3877,-1.3912,-1.3916,-1.392,-1.4001,0,0,-1.3932,-1.3934,0,0,0,0,0,0,0,0,-1.3832,-1.3839,-1.3885,-1.3884,-1.3882,-1.3904,-1.3912,-1.396,-1.3886,-1.3883,-1.3879,-1.3875,-1.3913,-1.3917,-1.3929,-1.4003,-1.4005,-1.3933,-1.3935,-1.3937,-1.3938,0,0,0,0,0,0,0,-1.383,-1.3837,-1.3918,-1.3886,-1.3884,-1.387,-1.3873,-1.3921,-1.3914,-1.3883,-1.3879,-1.3884,-1.3912,-1.3926,-1.393,-1.4005,-1.3932,-1.3936,-1.3939,-1.394,-1.4146,-1.4149,0,0,0,0,0,0,-1.3829,-1.3835,-1.3917,-1.3919,-1.385,-1.3874,-1.3878,-1.39,-1.3913,-1.3912,-1.3886,-1.3881,-1.392,-1.3925,-1.3931,-1.4027,-1.3937,-1.3941,-1.3943,-1.4143,-1.4147,-1.415,0,0,0,0,0,0,-1.3827,-1.3837,-1.3915,-1.3876,-1.3885,-1.3879,-1.3905,-1.3902,-1.3916,-1.3915,-1.3914,-1.3902,-1.3918,-1.3925,-1.3984,-1.4027,-1.3942,-1.3946,-1.414,-1.4144,-1.4149,-1.422,0,0,0,0,0,0,-1.3824,-1.3837,-1.3868,-1.3877,-1.3887,-1.3969,-1.3907,-1.3905,-1.3923,-1.3917,-1.393,-1.3929,-1.3916,-1.3978,-1.3988,-1.4031,-1.3949,-1.4136,-1.4142,-1.4147,-1.4214,-1.4226,-1.4237,0,0,0,0,0,-1.382,-1.3887,-1.387,-1.388,-1.3926,-1.3971,-1.3977,-1.3961,-1.3927,-1.3958,-1.3957,-1.3929,-1.4021,-1.3985,-1.3995,-1.4041,-1.4133,-1.414,-1.4147,-1.4209,-1.4224,-1.4237,0,0,0,0,0,0,-1.3884,-1.3888,-1.3869,-1.3941,-1.3956,-1.3962,-1.4001,-1.3978,-1.4004,-1.3997,-1.3975,-1.3979,-1.4042,-1.4047,-1.4007,-1.4119,-1.4071,-1.408,-1.4114,-1.4129,-1.4141,-1.4139,-1.3953,0,0,0,0,0,-1.3907,-1.3943,-1.3944,-1.4007,-1.4016,-1.4007,-1.4026,-1.4012,-1.4027,-1.4034,-1.4037,-1.4053,-1.4085,-1.4107,-1.4137,-1.4213,-1.4215,-1.425,-1.4261,-1.4271,-1.428,-1.432,-1.4335,-1.4173,-1.4173,-1.4172,0,0,-1.3954,-1.396,-1.3984,-1.402,-1.4031,-1.4068,-1.4013,-1.4056,-1.4084,-1.404,-1.4096,-1.4099,-1.4115,-1.4183,-1.4213,-1.4189,-1.4324,-1.428,-1.4287,-1.4291,-1.4328,-1.4344,-1.4357,-1.4177,-1.4176,-1.4176,0,0,-1.4058,-1.4067,-1.412,-1.4131,-1.4147,-1.414,-1.4153,-1.4162,-1.4162,-1.4218,-1.4185,-1.4218,-1.4274,-1.4287,-1.43,-1.4408,-1.4382,-1.4418,-1.448,-1.4519,-1.4532,-1.4543,-1.4581,-1.4595,-1.4426,-1.4426,-1.4426,0,-1.4115,-1.4171,-1.4151,-1.4195,-1.4212,-1.4173,-1.4227,-1.4238,-1.4263,-1.4275,-1.4247,-1.4316,-1.4324,-1.4394,-1.442,-1.4433,-1.4446,-1.4417,-1.4532,-1.4543,-1.4553,-1.4589,-1.4604,-1.443,-1.443,-1.443,-1.4429,0,-1.4239,-1.4278,-1.4319,-1.4344,-1.4365,-1.4414,-1.4401,-1.4424,-1.4407,-1.4404,-1.446,-1.4468,-1.4498,-1.4513,-1.4498,-1.4581,-1.4565,-1.4535,-1.4486,-1.4573,-1.4607,-1.462,-1.4437,-1.4435,-1.4434,-1.4433,0,0,-1.4388,-1.4399,-1.4414,-1.4424,-1.4438,-1.4468,-1.4514,-1.4543,-1.4563,-1.4581,-1.462,-1.4667,-1.4638,-1.4654,-1.4639,-1.4674,-1.4758,-1.4639,-1.4639,-1.4661,-1.4849,-1.4873,-1.4889,-1.474,-1.4743,-1.4745,-1.4848,0,-1.4493,-1.4573,-1.4555,-1.4634,-1.467,-1.4632,-1.4672,-1.4685,-1.4682,-1.4711,-1.4708,-1.4742,-1.4701,-1.471,-1.4743,-1.4741,-1.4795,-1.4733,-1.4776,-1.4778,-1.4774,-1.4907,-1.4932,-1.503,-1.4861,-1.4863,-1.4865,0,-1.4626,-1.4648,-1.4731,-1.4737,-1.4751,-1.4788,-1.4812,-1.4841,-1.4853,-1.4849,-1.4865,-1.4843,-1.4889,-1.4838,-1.49,-1.4858,-1.4874,-1.4876,-1.4879,-1.4883,-1.4828,-1.4916,-1.506,-1.5075,-1.4885,-1.4884,-1.4882,0,-1.4727,-1.4777,-1.4833,-1.4842,-1.4851,-1.4877,-1.4882,-1.4892,-1.491,-1.4931,-1.4942,-1.4969,-1.4983,-1.5004,-1.4989,-1.4954,-1.5054,-1.5002,-1.5051,-1.5052,-1.5075,-1.5074,-1.5225,-1.5084,-1.5084,-1.5084,-1.5084,0,-1.4847,-1.4899,-1.4878,-1.4912,-1.4969,-1.4947,-1.5004,-1.5004,-1.5013,-1.5046,-1.5015,-1.5047,-1.5025,-1.5055,-1.5044,-1.5097,-1.5103,-1.5101,-1.5098,-1.5104,-1.5105,-1.5116,-1.5109,-1.5088,-1.5087,-1.5086,-1.5085,0,-1.497,-1.4958,-1.5016,-1.5018,-1.502,-1.5062,-1.5064,-1.5096,-1.5089,-1.5132,-1.514,-1.5131,-1.5164,-1.5151,-1.5187,-1.5179,-1.5247,-1.5234,-1.5243,-1.524,-1.529,-1.5286,-1.5455,-1.5475,-1.532,-1.5322,-1.5323,0,-1.5047,-1.5086,-1.5093,-1.5112,-1.5119,-1.5152,-1.517,-1.5149,-1.5169,-1.5185,-1.5215,-1.5245,-1.5269,-1.5324,-1.532,-1.5347,-1.5335,-1.5392,-1.5339,-1.5344,-1.5336,-1.5334,-1.5338,-1.5403,-1.5405,-1.5406,-1.5407,0,-1.5187,-1.5178,-1.5205,-1.523,-1.5251,-1.527,-1.5286,-1.5304,-1.5283,-1.5307,-1.5341,-1.5359,-1.5394,-1.5425,-1.5448,-1.5453,-1.5427,-1.5424,-1.5437,-1.5445,-1.5448,-1.5447,-1.5273,-1.542,-1.5419,-1.5418,-1.5418,-1.5417,-1.529,-1.5322,-1.5331,-1.5362,-1.5371,-1.5386,-1.5415,-1.5412,-1.5439,-1.5467,-1.5452,-1.5491,-1.5501,-1.553,-1.5538,-1.5567,-1.5545,-1.5564,-1.5569,-1.5574,-1.5581,-1.5442,-1.5572,-1.5571,-1.5571,-1.557,-1.557,0,-1.5428,-1.5431,-1.5459,-1.5482,-1.5505,-1.5477,-1.5493,-1.5515,-1.5549,-1.556,-1.5583,-1.5621,-1.565,-1.5648,-1.5674,-1.5699,-1.5687,-1.5706,-1.5705,-1.5706,-1.5599,-1.5585,-1.5715,-1.5715,-1.5715,-1.5715,-1.5715,-1.5715,-1.5503,-1.5556,-1.5548,-1.5605,-1.5608,-1.5645,-1.5657,-1.567,-1.5678,-1.5722,-1.5746,-1.5743,-1.5749,-1.5775,-1.58,-1.5799,-1.581,-1.5834,-1.5828,-1.5728,-1.5714,-1.57,-1.5687,-1.5836,-1.5836,-1.5933,-1.5934,-1.5934]},{"header":{"parameterUnit":"m.s-1","parameterCategory":1,"la1":30.2991,"la2":30.254,"lo1":-89.0895,"lo2":-89.0444,"dy":0.0017,"dx":0.0017,"nx":28,"ny":28,"refTime":"2023-10-06T09:00:00:Z","depth":0,"parameterNumber":3,"parameterNumberName":"V-component_of_WINDS"},"data":[0,0,0,0,0,0,0,0,0,0,0,0,0,0,0,0,0,0,0,0,0,0,0,0,0,0,0,0,0,0,0,0,0,0,0,0,0,0,0,0,0,0,0,0,0,0,0,0,0,0,0,0,0,0,0,0,0,0,-7.4599,-7.4601,0,-7.4734,-7.4735,-7.4737,-7.4623,-7.4618,-7.4614,-7.4609,-7.4742,-7.4749,-7.4757,0,0,0,0,0,0,0,0,0,0,0,0,0,-7.4238,-7.4246,-7.4599,-7.4601,-7.4603,-7.4734,-7.4735,-7.4737,-7.4624,-7.4618,-7.4612,-7.4607,-7.4739,-7.4748,-7.4758,0,0,0,0,0,0,0,0,0,0,0,0,0,-7.4386,-7.4248,-7.4599,-7.4562,-7.456,-7.4733,-7.4735,-7.4738,-7.4625,-7.4618,-7.4611,-7.4604,-7.4736,-7.4747,-7.4759,-7.4974,0,0,-7.4795,-7.4801,0,0,0,0,0,0,0,0,-7.4378,-7.4399,-7.4566,-7.4565,-7.4563,-7.4654,-7.4656,-7.4817,-7.4627,-7.46,-7.4609,-7.4601,-7.4718,-7.4731,-7.4771,-7.498,-7.4986,-7.4796,-7.4804,-7.4809,-7.4812,0,0,0,0,0,0,0,-7.4368,-7.4393,-7.4652,-7.4568,-7.4567,-7.4537,-7.455,-7.4686,-7.4697,-7.4602,-7.4594,-7.4612,-7.4716,-7.476,-7.4774,-7.4988,-7.4796,-7.4807,-7.4814,-7.4819,-7.5378,-7.5386,0,0,0,0,0,0,-7.4362,-7.4385,-7.4648,-7.4656,-7.4451,-7.4549,-7.4564,-7.4632,-7.4695,-7.4698,-7.4618,-7.4606,-7.4743,-7.476,-7.4778,-7.5033,-7.4809,-7.482,-7.4827,-7.5371,-7.538,-7.5388,0,0,0,0,0,0,-7.4355,-7.4387,-7.4642,-7.4519,-7.4549,-7.4563,-7.464,-7.4639,-7.4683,-7.4707,-7.4708,-7.4662,-7.4738,-7.4761,-7.4926,-7.5036,-7.4825,-7.4836,-7.5361,-7.5373,-7.5384,-7.5546,0,0,0,0,0,0,-7.4345,-7.4385,-7.4468,-7.4522,-7.4556,-7.4791,-7.4647,-7.4646,-7.4704,-7.469,-7.4749,-7.4751,-7.4735,-7.4909,-7.4938,-7.5049,-7.4845,-7.5352,-7.5367,-7.538,-7.5531,-7.5562,-7.5588,0,0,0,0,0,-7.4332,-7.4507,-7.4473,-7.4505,-7.4661,-7.4798,-7.4817,-7.4796,-7.4714,-7.4797,-7.4812,-7.475,-7.502,-7.4927,-7.4959,-7.5074,-7.5345,-7.5362,-7.5379,-7.5518,-7.5556,-7.5587,0,0,0,0,0,0,-7.4465,-7.4514,-7.4476,-7.4674,-7.4733,-7.4778,-7.4882,-7.4837,-7.4918,-7.4902,-7.487,-7.4884,-7.5058,-7.5082,-7.4979,-7.5285,-7.5168,-7.5193,-7.5263,-7.5299,-7.5327,-7.5317,-7.4855,0,0,0,0,0,-7.4518,-7.4626,-7.4662,-7.4833,-7.4865,-7.4869,-7.4928,-7.4906,-7.4965,-7.4989,-7.5016,-7.5074,-7.5171,-7.5236,-7.5328,-7.5534,-7.5544,-7.5629,-7.5657,-7.568,-7.5702,-7.5811,-7.5849,-7.5445,-7.5445,-7.5445,0,0,-7.4627,-7.4667,-7.4737,-7.4861,-7.4904,-7.5015,-7.4891,-7.5014,-7.5096,-7.5007,-7.5165,-7.5187,-7.5249,-7.5436,-7.5519,-7.5461,-7.5816,-7.5703,-7.5721,-7.573,-7.5833,-7.5872,-7.5906,-7.5457,-7.5455,-7.5453,0,0,-7.4883,-7.4925,-7.5071,-7.5117,-7.5184,-7.5186,-7.5221,-7.5274,-7.5286,-7.5444,-7.5379,-7.5475,-7.5644,-7.5691,-7.5737,-7.601,-7.5955,-7.604,-7.6189,-7.6297,-7.6328,-7.6356,-7.6453,-7.6488,-7.6062,-7.6062,-7.6062,0,-7.5009,-7.5177,-7.5152,-7.5281,-7.5336,-7.5262,-7.541,-7.5455,-7.5548,-7.5587,-7.5521,-7.5732,-7.5768,-7.5964,-7.6031,-7.6071,-7.6108,-7.6034,-7.6326,-7.6354,-7.638,-7.6471,-7.6508,-7.6072,-7.6071,-7.607,-7.6069,0,-7.5329,-7.5446,-7.5556,-7.5649,-7.5717,-7.5855,-7.5849,-7.592,-7.5892,-7.59,-7.6061,-7.6103,-7.6201,-7.6245,-7.6219,-7.6438,-7.6399,-7.6331,-7.6213,-7.6429,-7.6514,-7.6549,-7.6086,-7.6082,-7.608,-7.6077,0,0,-7.5673,-7.5751,-7.5792,-7.5833,-7.5901,-7.599,-7.6123,-7.622,-7.6281,-7.6347,-7.6457,-7.6602,-7.6538,-7.6591,-7.6569,-7.6663,-7.6875,-7.6582,-7.6583,-7.6635,-7.7117,-7.7168,-7.721,-7.6839,-7.6846,-7.6851,-7.7112,0,-7.5931,-7.6165,-7.6146,-7.6366,-7.6472,-7.6403,-7.6519,-7.6572,-7.6583,-7.6673,-7.6683,-7.6786,-7.6695,-7.6726,-7.6816,-7.6831,-7.6972,-7.6811,-7.6939,-7.6944,-7.6926,-7.7254,-7.7309,-7.7553,-7.7145,-7.7151,-7.7155,0,-7.6264,-7.6344,-7.6575,-7.6626,-7.667,-7.6775,-7.6862,-7.695,-7.7008,-7.7009,-7.7068,-7.7029,-7.7161,-7.704,-7.722,-7.7112,-7.7162,-7.7177,-7.7186,-7.7197,-7.7063,-7.7274,-7.763,-7.7667,-7.7207,-7.7203,-7.7199,0,-7.6491,-7.6656,-7.6815,-7.6852,-7.6917,-7.6992,-7.7021,-7.7073,-7.7132,-7.7207,-7.7245,-7.7335,-7.7384,-7.7452,-7.7438,-7.7352,-7.7622,-7.75,-7.7625,-7.7625,-7.7685,-7.7681,-7.8054,-7.7718,-7.7718,-7.7717,-7.7716,0,-7.6782,-7.6926,-7.6918,-7.7016,-7.7175,-7.7151,-7.7307,-7.7328,-7.7374,-7.7473,-7.7418,-7.7512,-7.7488,-7.758,-7.757,-7.772,-7.7742,-7.7745,-7.7741,-7.775,-7.775,-7.7783,-7.7766,-7.7727,-7.7725,-7.7723,-7.7721,0,-7.7062,-7.7063,-7.7232,-7.7279,-7.7294,-7.7409,-7.7448,-7.754,-7.7545,-7.7672,-7.77,-7.7708,-7.7814,-7.7807,-7.7926,-7.7919,-7.8104,-7.8079,-7.8085,-7.808,-7.8205,-7.8193,-7.8612,-7.8665,-7.8295,-7.8299,-7.8302,0,-7.7248,-7.7357,-7.7416,-7.748,-7.7515,-7.7618,-7.7678,-7.7658,-7.7723,-7.7797,-7.7879,-7.7981,-7.806,-7.8232,-7.8248,-7.8338,-7.8315,-7.8456,-7.8328,-7.8334,-7.8316,-7.831,-7.832,-7.8481,-7.8485,-7.8488,-7.8491,0,-7.7576,-7.7571,-7.7662,-7.7754,-7.7828,-7.7898,-7.7962,-7.8016,-7.8002,-7.8078,-7.8187,-7.8249,-7.837,-7.8471,-7.8557,-7.8585,-7.8536,-7.8531,-7.8564,-7.8575,-7.8574,-7.8576,-7.8153,-7.8521,-7.8518,-7.8516,-7.8515,-7.8513,-7.7815,-7.7908,-7.7965,-7.8067,-7.8113,-7.8175,-7.8263,-7.828,-7.8371,-7.847,-7.8451,-7.8573,-7.8626,-7.8737,-7.8773,-7.8866,-7.8816,-7.8864,-7.8877,-7.8889,-7.8903,-7.856,-7.8882,-7.8881,-7.888,-7.8879,-7.8879,0,-7.814,-7.8173,-7.8268,-7.836,-7.844,-7.8388,-7.8456,-7.8526,-7.8634,-7.8689,-7.8769,-7.8893,-7.899,-7.9013,-7.9106,-7.9176,-7.9156,-7.9201,-7.9195,-7.9202,-7.8943,-7.8905,-7.9216,-7.9216,-7.9216,-7.9216,-7.9215,-7.9215,-7.8319,-7.8475,-7.8476,-7.8653,-7.8684,-7.8804,-7.8847,-7.8903,-7.8946,-7.9088,-7.9169,-7.9184,-7.9226,-7.9321,-7.9407,-7.9411,-7.9447,-7.9501,-7.9496,-7.9254,-7.9221,-7.9188,-7.9152,-7.951,-7.951,-7.9747,-7.9749,-7.9751]}]]